TimeEDT,TemperatureF,Dew PointF,Humidity,Sea Level PressureIn,VisibilityMPH,Wind Direction,Wind SpeedMPH,Gust SpeedMPH,PrecipitationIn,Events,Conditions,WindDirDegrees,DateUTC
12:53 AM,63.0,50.0,63,30.26,10.0,Calm,Calm,-,N/A,,Clear,0,2013-03-30 04:53:00
1:53 AM,61.0,50.0,67,30.25,10.0,ENE,3.5,-,N/A,,Clear,60,2013-03-30 05:53:00
2:53 AM,60.1,50.0,69,30.24,10.0,Calm,Calm,-,N/A,,Clear,0,2013-03-30 06:53:00
3:53 AM,60.1,50.0,69,30.24,10.0,Calm,Calm,-,N/A,,Clear,0,2013-03-30 07:53:00
4:53 AM,59.0,51.1,75,30.23,10.0,North,3.5,-,N/A,,Clear,360,2013-03-30 08:53:00
5:53 AM,57.0,51.1,81,30.23,10.0,North,3.5,-,N/A,,Clear,360,2013-03-30 09:53:00
6:53 AM,57.9,51.1,78,30.24,10.0,North,3.5,-,N/A,,Clear,350,2013-03-30 10:53:00
7:53 AM,57.9,52.0,81,30.26,10.0,Calm,Calm,-,N/A,,Clear,0,2013-03-30 11:53:00
8:53 AM,68.0,54.0,61,30.28,10.0,ENE,4.6,-,N/A,,Clear,60,2013-03-30 12:53:00
9:53 AM,72.0,48.9,44,30.28,10.0,East,10.4,16.1,N/A,,Clear,90,2013-03-30 13:53:00
10:53 AM,73.0,48.0,41,30.29,10.0,ENE,11.5,-,N/A,,Partly Cloudy,60,2013-03-30 14:53:00
11:53 AM,73.9,46.9,38,30.28,10.0,ENE,12.7,21.9,N/A,,Clear,60,2013-03-30 15:53:00
12:53 PM,75.0,45.0,34,30.27,10.0,ESE,10.4,-,N/A,,Clear,110,2013-03-30 16:53:00
1:53 PM,75.0,48.9,40,30.25,10.0,East,11.5,17.3,N/A,,Clear,90,2013-03-30 17:53:00
2:53 PM,75.0,48.9,40,30.22,10.0,East,11.5,18.4,N/A,,Clear,100,2013-03-30 18:53:00
3:53 PM,75.9,50.0,40,30.20,10.0,East,11.5,19.6,N/A,,Clear,80,2013-03-30 19:53:00
4:53 PM,73.9,50.0,43,30.19,10.0,SSE,6.9,-,N/A,,Clear,150,2013-03-30 20:53:00
5:53 PM,73.0,50.0,44,30.19,10.0,East,11.5,17.3,N/A,,Clear,90,2013-03-30 21:53:00
6:53 PM,71.1,50.0,47,30.19,10.0,East,11.5,-,N/A,,Clear,100,2013-03-30 22:53:00
7:53 PM,69.1,51.1,53,30.20,10.0,East,8.1,-,N/A,,Clear,90,2013-03-30 23:53:00
8:53 PM,69.1,53.1,57,30.21,10.0,ESE,6.9,-,N/A,,Partly Cloudy,120,2013-03-31 00:53:00
9:53 PM,68.0,52.0,56,30.22,10.0,ESE,6.9,-,N/A,,Scattered Clouds,110,2013-03-31 01:53:00
10:53 PM,66.9,52.0,59,30.23,10.0,ESE,5.8,-,N/A,,Clear,120,2013-03-31 02:53:00
11:53 PM,66.0,53.1,63,30.23,10.0,ESE,5.8,-,N/A,,Clear,120,2013-03-31 03:53:00